When you browse on this site, cookies collect data to enhance your experience and personalize the content and advertising you see.
Visit our Privacy Policy to learn more. By continuing to use the site, you agree to this use of cookies and data.
  • In Deutschland
  • Länderverzeichnis
  • Für 7 Tage
  • Wassertemperatur
  • Wetterkarte
  • Widgets
  • user-avatar
    Anmelden

    Stündliche Wetter Bruchsal

    Heute, 15 Oktober, Dienstag

    Zeit Temperatur Niederschläge Wind Luftdruck Luftfeuchtigkeit
    00:00 +18°C° 0 mm 1 m/S 746 mmHg 75%
    01:00 +17°C° 0 mm 2 m/S 746 mmHg 77%
    02:00 +18°C° 0 mm 1 m/S 746 mmHg 77%
    03:00 +18°C° 0 mm 1 m/S 745 mmHg 76%
    04:00 +18°C° 0 mm 1 m/S 745 mmHg 76%
    05:00 +16°C° 0 mm 1 m/S 745 mmHg 77%
    06:00 +16°C° 0 mm 1 m/S 744 mmHg 78%
    07:00 +16°C° 0 mm 1 m/S 744 mmHg 79%
    08:00 +18°C° 0 mm 1 m/S 744 mmHg 74%
    09:00 +20°C° 0 mm 1 m/S 744 mmHg 68%
    10:00 +22°C° 0 mm 1 m/S 743 mmHg 63%
    11:00 +23°C° 0 mm 1 m/S 743 mmHg 60%
    12:00 +24°C° 0 mm 1 m/S 743 mmHg 56%
    13:00 +25°C° 0 mm 1 m/S 743 mmHg 53%
    14:00 +22°C° 0.2 mm 3 m/S 743 mmHg 60%
    15:00 +21°C° 0.2 mm 4 m/S 743 mmHg 67%
    16:00 +20°C° 0.2 mm 6 m/S 743 mmHg 73%
    17:00 +17°C° 0.8 mm 6 m/S 744 mmHg 78%
    18:00 +16°C° 0.8 mm 6 m/S 745 mmHg 82%
    19:00 +14°C° 0.8 mm 6 m/S 746 mmHg 87%
    20:00 +14°C° 2 mm 6 m/S 746 mmHg 87%
    21:00 +13°C° 2 mm 6 m/S 747 mmHg 87%
    22:00 +13°C° 2 mm 6 m/S 748 mmHg 88%
    23:00 +13°C° 0.1 mm 5 m/S 749 mmHg 86%

    Morgen, 16 Oktober, Mittwoch

    Zeit Temperatur Niederschläge Wind Luftdruck Luftfeuchtigkeit
    00:00 +12°C° 0.1 mm 5 m/S 749 mmHg 85%
    01:00 +12°C° 0.1 mm 4 m/S 750 mmHg 84%
    02:00 +11°C° 0 mm 4 m/S 750 mmHg 84%
    03:00 +11°C° 0 mm 4 m/S 750 mmHg 85%
    04:00 +10°C° 0 mm 4 m/S 750 mmHg 85%
    05:00 +10°C° 0 mm 3 m/S 750 mmHg 86%
    06:00 +10°C° 0 mm 3 m/S 750 mmHg 86%
    07:00 +9°C° 0 mm 3 m/S 750 mmHg 87%
    08:00 +11°C° 0 mm 3 m/S 750 mmHg 81%
    09:00 +12°C° 0 mm 3 m/S 750 mmHg 74%
    10:00 +14°C° 0 mm 4 m/S 750 mmHg 68%
    11:00 +16°C° 0 mm 3 m/S 750 mmHg 65%
    12:00 +16°C° 0 mm 3 m/S 750 mmHg 63%
    13:00 +17°C° 0 mm 3 m/S 749 mmHg 60%
    14:00 +17°C° 0 mm 3 m/S 749 mmHg 61%
    15:00 +18°C° 0 mm 2 m/S 749 mmHg 61%
    16:00 +18°C° 0 mm 2 m/S 749 mmHg 62%
    17:00 +17°C° 0 mm 2 m/S 749 mmHg 67%
    18:00 +15°C° 0 mm 2 m/S 749 mmHg 71%
    19:00 +14°C° 0 mm 2 m/S 749 mmHg 76%
    20:00 +13°C° 0 mm 1 m/S 749 mmHg 76%
    21:00 +13°C° 0 mm 1 m/S 750 mmHg 77%
    22:00 +13°C° 0 mm 1 m/S 750 mmHg 77%
    23:00 +13°C° 0 mm 1 m/S 750 mmHg 75%

    übermorgen, 17 Oktober, Donnerstag

    Zeit Temperatur Niederschläge Wind Luftdruck Luftfeuchtigkeit
    00:00 +13°C° 0 mm 1 m/S 750 mmHg 72%
    01:00 +13°C° 0 mm 1 m/S 750 mmHg 70%
    02:00 +13°C° 0 mm 2 m/S 750 mmHg 70%
    03:00 +13°C° 0 mm 2 m/S 750 mmHg 71%
    04:00 +13°C° 0 mm 2 m/S 750 mmHg 71%
    05:00 +13°C° 0.1 mm 2 m/S 750 mmHg 73%
    06:00 +13°C° 0.1 mm 2 m/S 750 mmHg 75%
    07:00 +13°C° 0.1 mm 2 m/S 750 mmHg 78%
    08:00 +13°C° 0 mm 2 m/S 750 mmHg 77%
    09:00 +14°C° 0 mm 2 m/S 751 mmHg 76%
    10:00 +15°C° 0 mm 2 m/S 751 mmHg 75%
    11:00 +15°C° 0 mm 2 m/S 751 mmHg 74%
    12:00 +16°C° 0 mm 2 m/S 751 mmHg 72%
    13:00 +16°C° 0 mm 2 m/S 751 mmHg 71%
    14:00 +16°C° 0 mm 2 m/S 751 mmHg 72%
    15:00 +16°C° 0 mm 1 m/S 750 mmHg 72%
    16:00 +16°C° 0 mm 1 m/S 750 mmHg 73%
    17:00 +15°C° 0 mm 1 m/S 751 mmHg 76%
    18:00 +15°C° 0 mm 1 m/S 751 mmHg 80%
    19:00 +14°C° 0 mm 1 m/S 751 mmHg 84%
    20:00 +14°C° 0 mm 1 m/S 751 mmHg 85%
    21:00 +13°C° 0 mm 1 m/S 751 mmHg 86%
    22:00 +13°C° 0 mm 1 m/S 751 mmHg 87%
    23:00 +13°C° 0 mm 1 m/S 751 mmHg 86%

    18 Oktober, Freitag

    Zeit Temperatur Niederschläge Wind Luftdruck Luftfeuchtigkeit
    00:00 +13°C° 0 mm 1 m/S 751 mmHg 85%
    01:00 +13°C° 0 mm 1 m/S 751 mmHg 84%
    02:00 +14°C° 0.2 mm 1 m/S 751 mmHg 86%
    03:00 +14°C° 0.2 mm 1 m/S 750 mmHg 88%
    04:00 +14°C° 0.2 mm 1 m/S 750 mmHg 90%
    05:00 +14°C° 0.2 mm 1 m/S 750 mmHg 91%
    06:00 +14°C° 0.2 mm 1 m/S 750 mmHg 92%
    07:00 +14°C° 0.2 mm 1 m/S 750 mmHg 93%
    08:00 +14°C° 0.5 mm 1 m/S 750 mmHg 92%
    09:00 +15°C° 0.5 mm 1 m/S 750 mmHg 92%
    10:00 +15°C° 0.5 mm 2 m/S 751 mmHg 91%
    11:00 +16°C° 0.4 mm 2 m/S 750 mmHg 87%
    12:00 +17°C° 0.4 mm 2 m/S 750 mmHg 84%
    13:00 +18°C° 0.4 mm 1 m/S 750 mmHg 81%
    14:00 +19°C° 0.4 mm 1 m/S 750 mmHg 81%
    15:00 +19°C° 0.4 mm 1 m/S 749 mmHg 80%
    16:00 +19°C° 0.4 mm 1 m/S 749 mmHg 80%
    17:00 +18°C° 0.3 mm 1 m/S 749 mmHg 83%
    18:00 +16°C° 0.3 mm 1 m/S 749 mmHg 86%
    19:00 +15°C° 0.3 mm 1 m/S 749 mmHg 89%
    20:00 +15°C° 0.5 mm 1 m/S 749 mmHg 90%
    21:00 +14°C° 0.5 mm 1 m/S 749 mmHg 91%
    22:00 +14°C° 0.5 mm 1 m/S 749 mmHg 92%
    23:00 +14°C° 1.1 mm 1 m/S 749 mmHg 93%

    19 Oktober, Samstag

    Zeit Temperatur Niederschläge Wind Luftdruck Luftfeuchtigkeit
    00:00 +14°C° 1.1 mm 1 m/S 749 mmHg 94%
    01:00 +14°C° 1.1 mm 1 m/S 749 mmHg 94%
    02:00 +14°C° 0.4 mm 1 m/S 749 mmHg 94%
    03:00 +14°C° 0.4 mm 1 m/S 749 mmHg 93%
    04:00 +14°C° 0.4 mm 2 m/S 749 mmHg 92%
    05:00 +13°C° 0 mm 1 m/S 748 mmHg 92%
    06:00 +13°C° 0 mm 1 m/S 748 mmHg 91%
    07:00 +12°C° 0 mm 1 m/S 748 mmHg 91%
    08:00 +13°C° 0 mm 1 m/S 748 mmHg 87%
    09:00 +15°C° 0 mm 1 m/S 748 mmHg 83%
    10:00 +16°C° 0 mm 1 m/S 747 mmHg 79%
    11:00 +16°C° 0 mm 1 m/S 747 mmHg 75%
    12:00 +18°C° 0 mm 1 m/S 747 mmHg 71%
    13:00 +18°C° 0 mm 2 m/S 746 mmHg 67%
    14:00 +17°C° 0.2 mm 2 m/S 746 mmHg 72%
    15:00 +16°C° 0.2 mm 2 m/S 746 mmHg 76%
    16:00 +15°C° 0.2 mm 2 m/S 745 mmHg 81%
    17:00 +15°C° 1 mm 2 m/S 745 mmHg 85%
    18:00 +14°C° 1 mm 2 m/S 745 mmHg 88%
    19:00 +13°C° 1 mm 2 m/S 746 mmHg 92%
    20:00 +13°C° 1.2 mm 2 m/S 746 mmHg 92%
    21:00 +13°C° 1.2 mm 2 m/S 746 mmHg 92%
    22:00 +13°C° 1.2 mm 2 m/S 747 mmHg 92%
    23:00 +13°C° 0.2 mm 2 m/S 747 mmHg 91%

    20 Oktober, Sonntag

    Zeit Temperatur Niederschläge Wind Luftdruck Luftfeuchtigkeit
    00:00 +12°C° 0.2 mm 3 m/S 747 mmHg 90%
    01:00 +12°C° 0.2 mm 3 m/S 747 mmHg 89%
    02:00 +11°C° 0 mm 3 m/S 747 mmHg 89%
    03:00 +12°C° 0 mm 2 m/S 748 mmHg 89%
    04:00 +10°C° 0 mm 2 m/S 748 mmHg 90%
    05:00 +10°C° 0 mm 2 m/S 748 mmHg 90%
    06:00 +9°C° 0 mm 2 m/S 748 mmHg 90%
    07:00 +9°C° 0 mm 2 m/S 749 mmHg 90%
    08:00 +10°C° 0 mm 2 m/S 749 mmHg 85%
    09:00 +13°C° 0 mm 2 m/S 749 mmHg 81%
    10:00 +13°C° 0 mm 3 m/S 749 mmHg 76%
    11:00 +14°C° 0 mm 3 m/S 749 mmHg 71%
    12:00 +14°C° 0 mm 3 m/S 749 mmHg 66%
    13:00 +16°C° 0 mm 2 m/S 749 mmHg 60%
    14:00 +16°C° 0 mm 2 m/S 749 mmHg 62%
    15:00 +16°C° 0 mm 2 m/S 748 mmHg 63%
    16:00 +16°C° 0 mm 2 m/S 748 mmHg 64%
    17:00 +15°C° 0 mm 1 m/S 748 mmHg 68%
    18:00 +14°C° 0 mm 1 m/S 749 mmHg 72%
    19:00 +13°C° 0 mm 1 m/S 749 mmHg 75%
    20:00 +13°C° 0 mm 1 m/S 749 mmHg 76%
    21:00 +12°C° 0 mm 1 m/S 749 mmHg 78%
    22:00 +12°C° 0 mm 1 m/S 749 mmHg 79%
    23:00 +11°C° 0 mm 0 m/S 749 mmHg 80%
    Mehr zeigen